Time,TemperatureF,DewpointF,PressureIn,WindDirection,WindDirectionDegrees,WindSpeedMPH,WindSpeedGustMPH,Humidity,HourlyPrecipIn,Conditions,Clouds,dailyrainin,SoftwareType,DateUTC
2013-01-24 00:02:00,17.0,8.0,-100.00,North,0,0.0,0.0,67,-99.99,,,-99.99,,2013-01-24 06:02:00,
2013-01-24 00:12:00,16.0,7.0,-100.00,North,0,0.0,0.0,67,-99.99,,,-99.99,,2013-01-24 06:12:00,
2013-01-24 00:22:00,16.0,7.0,-100.00,North,5,0.0,0.0,67,-99.99,,,-99.99,,2013-01-24 06:22:00,
2013-01-24 00:32:00,16.0,7.0,-100.00,North,5,0.0,0.0,67,-99.99,,,-99.99,,2013-01-24 06:32:00,
2013-01-24 00:42:00,15.0,7.0,-100.00,North,0,0.0,0.0,68,-99.99,,,-99.99,,2013-01-24 06:42:00,
2013-01-24 00:52:00,15.0,7.0,-100.00,NNW,345,0.0,0.0,69,-99.99,,,-99.99,,2013-01-24 06:52:00,
2013-01-24 01:02:00,15.0,7.0,-100.00,NNW,345,0.0,0.0,69,-99.99,,,-99.99,,2013-01-24 07:02:00,
2013-01-24 01:12:00,15.0,7.0,-100.00,North,0,0.0,0.0,70,-99.99,,,-99.99,,2013-01-24 07:12:00,
2013-01-24 01:23:00,14.0,6.0,-100.00,North,350,0.0,0.0,69,-99.99,,,-99.99,,2013-01-24 07:23:00,
2013-01-24 01:33:00,14.0,6.0,-100.00,North,350,0.0,0.0,69,-99.99,,,-99.99,,2013-01-24 07:33:00,
2013-01-24 01:42:00,14.0,6.0,-100.00,North,355,0.0,0.0,70,-99.99,,,-99.99,,2013-01-24 07:42:00,
2013-01-24 01:53:00,13.0,6.0,-100.00,NNW,345,0.0,0.0,71,-99.99,,,-99.99,,2013-01-24 07:53:00,
2013-01-24 02:02:00,13.0,6.0,-100.00,NNW,345,0.0,0.0,71,-99.99,,,-99.99,,2013-01-24 08:02:00,
2013-01-24 02:12:00,13.0,5.0,-100.00,North,0,0.0,0.0,71,-99.99,,,-99.99,,2013-01-24 08:12:00,
2013-01-24 02:23:00,13.0,5.0,-100.00,North,0,0.0,0.0,71,-99.99,,,-99.99,,2013-01-24 08:23:00,
2013-01-24 02:33:00,13.0,5.0,-100.00,North,0,0.0,0.0,71,-99.99,,,-99.99,,2013-01-24 08:33:00,
2013-01-24 02:43:00,13.0,5.0,-100.00,NNE,15,0.0,0.0,71,-99.99,,,-99.99,,2013-01-24 08:43:00,
2013-01-24 02:53:00,12.0,5.0,-100.00,North,10,0.0,0.0,72,-99.99,,,-99.99,,2013-01-24 08:53:00,
2013-01-24 03:00:00,12.0,5.0,-100.00,NNE,20,0.0,0.0,73,-99.99,,,-99.99,,2013-01-24 09:00:00,
2013-01-24 03:03:00,12.0,5.0,-100.00,North,10,0.0,0.0,72,-99.99,,,-99.99,,2013-01-24 09:03:00,
2013-01-24 03:13:00,12.0,5.0,-100.00,North,10,0.0,0.0,73,-99.99,,,-99.99,,2013-01-24 09:13:00,
2013-01-24 03:23:00,12.0,5.0,-100.00,NNE,30,0.0,0.0,73,-99.99,,,-99.99,,2013-01-24 09:23:00,
2013-01-24 03:33:00,12.0,5.0,-100.00,NNE,30,0.0,0.0,73,-99.99,,,-99.99,,2013-01-24 09:33:00,
2013-01-24 03:43:00,12.0,5.0,-100.00,NNE,20,0.0,0.0,73,-99.99,,,-99.99,,2013-01-24 09:43:00,
2013-01-24 03:53:00,12.0,5.0,-100.00,NNE,20,0.0,0.0,73,-99.99,,,-99.99,,2013-01-24 09:53:00,
2013-01-24 04:12:00,12.0,5.0,-100.00,North,0,0.0,0.0,73,-99.99,,,-99.99,,2013-01-24 10:12:00,
2013-01-24 04:23:00,12.0,5.0,-100.00,NNE,20,0.0,0.0,73,-99.99,,,-99.99,,2013-01-24 10:23:00,
2013-01-24 04:33:00,12.0,5.0,-100.00,NNE,20,0.0,0.0,73,-99.99,,,-99.99,,2013-01-24 10:33:00,
2013-01-24 04:43:00,11.0,5.0,-100.00,NNE,20,0.0,0.0,73,-99.99,,,-99.99,,2013-01-24 10:43:00,
2013-01-24 04:53:00,11.0,5.0,-100.00,NE,45,0.0,0.0,74,-99.99,,,-99.99,,2013-01-24 10:53:00,
2013-01-24 05:03:00,11.0,5.0,-100.00,NE,45,0.0,0.0,74,-99.99,,,-99.99,,2013-01-24 11:03:00,
2013-01-24 05:12:00,11.0,4.0,-100.00,NE,40,0.0,0.0,73,-99.99,,,-99.99,,2013-01-24 11:12:00,
2013-01-24 05:23:00,11.0,5.0,-100.00,NE,45,0.0,0.0,75,-99.99,,,-99.99,,2013-01-24 11:23:00,
2013-01-24 05:33:00,11.0,5.0,-100.00,NE,45,0.0,0.0,75,-99.99,,,-99.99,,2013-01-24 11:33:00,
2013-01-24 05:43:00,11.0,4.0,-100.00,NE,50,0.0,0.0,75,-99.99,,,-99.99,,2013-01-24 11:43:00,
2013-01-24 05:53:00,10.0,4.0,-100.00,NE,45,0.0,0.0,76,-99.99,,,-99.99,,2013-01-24 11:53:00,
2013-01-24 06:03:00,10.0,4.0,-100.00,NE,45,0.0,0.0,76,-99.99,,,-99.99,,2013-01-24 12:03:00,
2013-01-24 06:12:00,10.0,4.0,-100.00,NNE,25,0.0,0.0,75,-99.99,,,-99.99,,2013-01-24 12:12:00,
2013-01-24 06:23:00,10.0,3.0,-100.00,NNE,30,0.0,0.0,74,-99.99,,,-99.99,,2013-01-24 12:23:00,
2013-01-24 06:33:00,10.0,3.0,-100.00,NNE,30,0.0,0.0,74,-99.99,,,-99.99,,2013-01-24 12:33:00,
2013-01-24 06:43:00,10.0,3.0,-100.00,NE,50,0.0,0.0,74,-99.99,,,-99.99,,2013-01-24 12:43:00,
2013-01-24 06:53:00,10.0,3.0,-100.00,NE,50,0.0,0.0,73,-99.99,,,-99.99,,2013-01-24 12:53:00,
2013-01-24 07:03:00,10.0,3.0,-100.00,NE,50,0.0,0.0,73,-99.99,,,-99.99,,2013-01-24 13:03:00,
2013-01-24 07:13:00,10.0,3.0,-100.00,ENE,70,0.0,0.0,73,-99.99,,,-99.99,,2013-01-24 13:13:00,
2013-01-24 07:23:00,10.0,3.0,-100.00,NNE,30,0.0,0.0,73,-99.99,,,-99.99,,2013-01-24 13:23:00,
2013-01-24 07:33:00,10.0,3.0,-100.00,NNE,30,0.0,0.0,73,-99.99,,,-99.99,,2013-01-24 13:33:00,
2013-01-24 07:43:00,10.0,3.0,-100.00,NNE,30,0.0,0.0,73,-99.99,,,-99.99,,2013-01-24 13:43:00,
2013-01-24 07:53:00,9.0,3.0,-100.00,ENE,65,0.0,0.0,74,-99.99,,,-99.99,,2013-01-24 13:53:00,
2013-01-24 08:03:00,9.0,3.0,-100.00,ENE,65,0.0,0.0,74,-99.99,,,-99.99,,2013-01-24 14:03:00,
2013-01-24 08:12:00,9.0,2.0,-100.00,ENE,70,0.0,0.0,73,-99.99,,,-99.99,,2013-01-24 14:12:00,
2013-01-24 08:23:00,9.0,2.0,-100.00,NE,50,0.0,0.0,73,-99.99,,,-99.99,,2013-01-24 14:23:00,
2013-01-24 08:33:00,9.0,2.0,-100.00,NE,50,0.0,0.0,73,-99.99,,,-99.99,,2013-01-24 14:33:00,
2013-01-24 08:43:00,9.0,2.0,-100.00,ENE,60,0.0,0.0,72,-99.99,,,-99.99,,2013-01-24 14:43:00,
2013-01-24 08:54:00,10.0,2.0,-100.00,ENE,60,0.0,0.0,71,-99.99,,,-99.99,,2013-01-24 14:54:00,
2013-01-24 09:03:00,10.0,2.0,-100.00,ENE,60,0.0,0.0,71,-99.99,,,-99.99,,2013-01-24 15:03:00,
2013-01-24 09:12:00,10.0,3.0,-100.00,NE,55,0.0,0.0,71,-99.99,,,-99.99,,2013-01-24 15:12:00,
2013-01-24 09:23:00,11.0,3.0,-100.00,ENE,60,0.0,0.0,70,-99.99,,,-99.99,,2013-01-24 15:23:00,
2013-01-24 09:33:00,11.0,3.0,-100.00,ENE,60,0.0,0.0,70,-99.99,,,-99.99,,2013-01-24 15:33:00,
2013-01-24 09:43:00,11.0,3.0,-100.00,ENE,60,0.0,0.0,70,-99.99,,,-99.99,,2013-01-24 15:43:00,
2013-01-24 09:53:00,11.0,3.0,-100.00,ENE,65,0.0,0.0,69,-99.99,,,-99.99,,2013-01-24 15:53:00,
2013-01-24 10:00:00,14.0,4.0,-100.00,ENE,60,0.0,0.0,65,-99.99,,,-99.99,,2013-01-24 16:00:00,
2013-01-24 10:03:00,11.0,3.0,-100.00,ENE,65,0.0,0.0,69,-99.99,,,-99.99,,2013-01-24 16:03:00,
2013-01-24 10:12:00,12.0,4.0,-100.00,NE,55,0.0,0.0,68,-99.99,,,-99.99,,2013-01-24 16:12:00,
2013-01-24 10:23:00,13.0,4.0,-100.00,ENE,60,0.0,0.0,66,-99.99,,,-99.99,,2013-01-24 16:23:00,
2013-01-24 10:33:00,13.0,4.0,-100.00,ENE,60,0.0,0.0,66,-99.99,,,-99.99,,2013-01-24 16:33:00,
2013-01-24 10:42:00,14.0,4.0,-100.00,ENE,60,0.0,0.0,65,-99.99,,,-99.99,,2013-01-24 16:42:00,
2013-01-24 11:12:00,14.0,4.0,-100.00,ENE,70,0.0,0.0,63,-99.99,,,-99.99,,2013-01-24 17:12:00,
2013-01-24 11:22:00,14.0,4.0,-100.00,ENE,70,0.0,0.0,63,-99.99,,,-99.99,,2013-01-24 17:22:00,
2013-01-24 11:32:00,16.0,5.0,-100.00,ENE,75,0.0,0.0,62,-99.99,,,-99.99,,2013-01-24 17:32:00,
2013-01-24 11:42:00,17.0,5.0,-100.00,SE,135,0.0,0.0,59,-99.99,,,-99.99,,2013-01-24 17:42:00,
2013-01-24 11:52:00,16.0,4.0,-100.00,East,95,0.0,0.0,58,-99.99,,,-99.99,,2013-01-24 17:52:00,
2013-01-24 12:02:00,16.0,4.0,-100.00,East,95,0.0,0.0,58,-99.99,,,-99.99,,2013-01-24 18:02:00,
2013-01-24 12:12:00,16.0,4.0,-100.00,SE,125,0.0,0.0,57,-99.99,,,-99.99,,2013-01-24 18:12:00,
2013-01-24 12:22:00,16.0,4.0,-100.00,East,100,0.0,0.0,57,-99.99,,,-99.99,,2013-01-24 18:22:00,
2013-01-24 12:33:00,16.0,4.0,-100.00,East,100,0.0,0.0,57,-99.99,,,-99.99,,2013-01-24 18:33:00,
2013-01-24 12:42:00,17.0,4.0,-100.00,SSE,165,0.0,0.0,56,-99.99,,,-99.99,,2013-01-24 18:42:00,
2013-01-24 12:53:00,18.0,5.0,-100.00,East,80,0.0,0.0,55,-99.99,,,-99.99,,2013-01-24 18:53:00,
2013-01-24 13:02:00,18.0,5.0,-100.00,East,80,0.0,0.0,55,-99.99,,,-99.99,,2013-01-24 19:02:00,
2013-01-24 13:12:00,19.0,5.0,-100.00,SSE,160,0.0,0.0,54,-99.99,,,-99.99,,2013-01-24 19:12:00,
2013-01-24 13:22:00,19.0,5.0,-100.00,East,95,0.0,0.0,53,-99.99,,,-99.99,,2013-01-24 19:22:00,
2013-01-24 13:33:00,19.0,5.0,-100.00,East,95,0.0,0.0,53,-99.99,,,-99.99,,2013-01-24 19:33:00,
2013-01-24 13:42:00,19.0,5.0,-100.00,East,100,0.0,0.0,53,-99.99,,,-99.99,,2013-01-24 19:42:00,
2013-01-24 13:53:00,20.0,6.0,-100.00,East,100,0.0,0.0,53,-99.99,,,-99.99,,2013-01-24 19:53:00,
2013-01-24 14:02:00,20.0,6.0,-100.00,East,100,0.0,0.0,53,-99.99,,,-99.99,,2013-01-24 20:02:00,
2013-01-24 14:11:00,21.0,6.0,-100.00,East,100,0.0,0.0,53,-99.99,,,-99.99,,2013-01-24 20:11:00,
2013-01-24 14:22:00,21.0,7.0,-100.00,ESE,110,0.0,0.0,53,-99.99,,,-99.99,,2013-01-24 20:22:00,
2013-01-24 14:32:00,22.0,8.0,-100.00,ESE,105,0.0,0.0,53,-99.99,,,-99.99,,2013-01-24 20:32:00,
2013-01-24 14:42:00,22.0,8.0,-100.00,ESE,105,0.0,0.0,53,-99.99,,,-99.99,,2013-01-24 20:42:00,
2013-01-24 14:52:00,23.0,8.0,-100.00,ESE,115,0.0,0.0,52,-99.99,,,-99.99,,2013-01-24 20:52:00,
2013-01-24 15:02:00,23.0,8.0,-100.00,SE,125,0.0,0.0,52,-99.99,,,-99.99,,2013-01-24 21:02:00,
2013-01-24 15:12:00,23.0,8.0,-100.00,SE,125,0.0,0.0,52,-99.99,,,-99.99,,2013-01-24 21:12:00,
2013-01-24 15:22:00,23.0,8.0,-100.00,ESE,115,0.0,0.0,52,-99.99,,,-99.99,,2013-01-24 21:22:00,
2013-01-24 15:33:00,23.0,8.0,-100.00,ESE,115,0.0,0.0,52,-99.99,,,-99.99,,2013-01-24 21:33:00,
2013-01-24 15:43:00,24.0,9.0,-100.00,South,180,0.0,0.0,51,-99.99,,,-99.99,,2013-01-24 21:43:00,
2013-01-24 15:53:00,24.0,9.0,-100.00,ESE,120,0.0,0.0,51,-99.99,,,-99.99,,2013-01-24 21:53:00,
2013-01-24 16:03:00,24.0,9.0,-100.00,ESE,120,0.0,0.0,51,-99.99,,,-99.99,,2013-01-24 22:03:00,
2013-01-24 16:12:00,24.0,9.0,-100.00,SE,125,0.0,0.0,51,-99.99,,,-99.99,,2013-01-24 22:12:00,
2013-01-24 16:22:00,24.0,9.0,-100.00,ESE,120,0.0,0.0,51,-99.99,,,-99.99,,2013-01-24 22:22:00,
2013-01-24 16:32:00,24.0,9.0,-100.00,ESE,120,0.0,0.0,51,-99.99,,,-99.99,,2013-01-24 22:32:00,
2013-01-24 16:42:00,24.0,9.0,-100.00,East,100,0.0,0.0,53,-99.99,,,-99.99,,2013-01-24 22:42:00,
2013-01-24 16:53:00,24.0,9.0,-100.00,SE,135,0.0,0.0,53,-99.99,,,-99.99,,2013-01-24 22:53:00,
2013-01-24 17:02:00,24.0,9.0,-100.00,SE,135,0.0,0.0,53,-99.99,,,-99.99,,2013-01-24 23:02:00,
2013-01-24 17:12:00,23.0,9.0,-100.00,ESE,110,0.0,0.0,55,-99.99,,,-99.99,,2013-01-24 23:12:00,
2013-01-24 17:22:00,23.0,10.0,-100.00,SE,135,0.0,0.0,56,-99.99,,,-99.99,,2013-01-24 23:22:00,
2013-01-24 17:32:00,23.0,10.0,-100.00,SE,135,0.0,0.0,56,-99.99,,,-99.99,,2013-01-24 23:32:00,
2013-01-24 17:42:00,23.0,10.0,-100.00,SE,125,0.0,0.0,57,-99.99,,,-99.99,,2013-01-24 23:42:00,
2013-01-24 17:52:00,23.0,10.0,-100.00,SE,130,0.0,0.0,57,-99.99,,,-99.99,,2013-01-24 23:52:00,
2013-01-24 18:02:00,23.0,10.0,-100.00,SE,130,0.0,0.0,57,-99.99,,,-99.99,,2013-01-25 00:02:00,
2013-01-24 18:12:00,23.0,10.0,-100.00,SE,125,0.0,0.0,57,-99.99,,,-99.99,,2013-01-25 00:12:00,
2013-01-24 18:22:00,23.0,10.0,-100.00,SE,130,0.0,0.0,57,-99.99,,,-99.99,,2013-01-25 00:22:00,
2013-01-24 18:32:00,23.0,10.0,-100.00,SE,130,0.0,0.0,57,-99.99,,,-99.99,,2013-01-25 00:32:00,
2013-01-24 18:42:00,23.0,10.0,-100.00,SE,125,0.0,0.0,57,-99.99,,,-99.99,,2013-01-25 00:42:00,
2013-01-24 18:53:00,23.0,11.0,-100.00,ESE,120,0.0,0.0,58,-99.99,,,-99.99,,2013-01-25 00:53:00,
2013-01-24 19:02:00,23.0,11.0,-100.00,ESE,120,0.0,0.0,58,-99.99,,,-99.99,,2013-01-25 01:02:00,
2013-01-24 19:12:00,23.0,11.0,-100.00,SE,135,0.0,0.0,59,-99.99,,,-99.99,,2013-01-25 01:12:00,
2013-01-24 19:22:00,23.0,11.0,-100.00,SE,125,0.0,0.0,59,-99.99,,,-99.99,,2013-01-25 01:22:00,
2013-01-24 19:32:00,23.0,11.0,-100.00,SE,125,0.0,0.0,59,-99.99,,,-99.99,,2013-01-25 01:32:00,
2013-01-24 19:42:00,23.0,11.0,-100.00,SE,125,0.0,0.0,59,-99.99,,,-99.99,,2013-01-25 01:42:00,
2013-01-24 19:52:00,23.0,12.0,-100.00,SE,135,0.0,0.0,60,-99.99,,,-99.99,,2013-01-25 01:52:00,
2013-01-24 20:02:00,24.0,12.0,-100.00,SE,130,0.0,0.0,61,-99.99,,,-99.99,,2013-01-25 02:02:00,
2013-01-24 20:11:00,24.0,12.0,-100.00,SE,130,0.0,0.0,61,-99.99,,,-99.99,,2013-01-25 02:11:00,
2013-01-24 20:22:00,24.0,12.0,-100.00,SE,145,0.0,0.0,61,-99.99,,,-99.99,,2013-01-25 02:22:00,
2013-01-24 20:30:00,24.0,12.0,-100.00,ESE,115,0.0,0.0,61,-99.99,,,-99.99,,2013-01-25 02:30:00,
2013-01-24 20:32:00,24.0,12.0,-100.00,SE,145,0.0,0.0,61,-99.99,,,-99.99,,2013-01-25 02:32:00,
2013-01-24 20:42:00,24.0,12.0,-100.00,SSE,165,0.0,0.0,61,-99.99,,,-99.99,,2013-01-25 02:42:00,
2013-01-24 20:53:00,24.0,12.0,-100.00,SE,135,0.0,0.0,61,-99.99,,,-99.99,,2013-01-25 02:53:00,
2013-01-24 21:02:00,24.0,12.0,-100.00,SE,135,0.0,0.0,61,-99.99,,,-99.99,,2013-01-25 03:02:00,
2013-01-24 21:12:00,24.0,12.0,-100.00,ESE,115,0.0,0.0,61,-99.99,,,-99.99,,2013-01-25 03:12:00,
2013-01-24 21:22:00,24.0,12.0,-100.00,ESE,115,0.0,0.0,61,-99.99,,,-99.99,,2013-01-25 03:22:00,
2013-01-24 21:42:00,24.0,12.0,-100.00,SE,140,0.0,0.0,61,-99.99,,,-99.99,,2013-01-25 03:42:00,
2013-01-24 21:52:00,24.0,12.0,-100.00,SE,145,0.0,0.0,61,-99.99,,,-99.99,,2013-01-25 03:52:00,
2013-01-24 22:02:00,24.0,12.0,-100.00,SE,145,0.0,0.0,61,-99.99,,,-99.99,,2013-01-25 04:02:00,
2013-01-24 22:12:00,24.0,12.0,-100.00,South,175,0.0,0.0,61,-99.99,,,-99.99,,2013-01-25 04:12:00,
2013-01-24 22:22:00,24.0,12.0,-100.00,SSE,150,0.0,0.0,61,-99.99,,,-99.99,,2013-01-25 04:22:00,
2013-01-24 22:32:00,24.0,12.0,-100.00,SSE,150,0.0,0.0,61,-99.99,,,-99.99,,2013-01-25 04:32:00,
2013-01-24 22:42:00,24.0,12.0,-100.00,ESE,115,0.0,0.0,61,-99.99,,,-99.99,,2013-01-25 04:42:00,
2013-01-24 22:52:00,24.0,12.0,-100.00,SE,135,0.0,0.0,61,-99.99,,,-99.99,,2013-01-25 04:52:00,
2013-01-24 23:03:00,24.0,12.0,-100.00,SE,135,0.0,0.0,61,-99.99,,,-99.99,,2013-01-25 05:03:00,
2013-01-24 23:12:00,24.0,13.0,-100.00,SE,130,0.0,0.0,61,-99.99,,,-99.99,,2013-01-25 05:12:00,
2013-01-24 23:22:00,24.0,13.0,-100.00,SSE,150,0.0,0.0,61,-99.99,,,-99.99,,2013-01-25 05:22:00,
2013-01-24 23:32:00,24.0,13.0,-100.00,SSE,150,0.0,0.0,61,-99.99,,,-99.99,,2013-01-25 05:32:00,
2013-01-24 23:43:00,24.0,13.0,-100.00,SE,135,0.0,0.0,61,-99.99,,,-99.99,,2013-01-25 05:43:00,
2013-01-24 23:52:00,24.0,13.0,-100.00,SE,130,0.0,0.0,61,-99.99,,,-99.99,,2013-01-25 05:52:00,